| time (UTC) | temp F | wind direction | speed MPH | gust MPH | rain 1hr in | rain 24hr in | rain mn in | humidity % | barometer mb |
| 20260831191519 | 82 | 31 | 0.0 | 0.0 | 0.00 | 0.00 | 0.00 | 89 | 1014.8 |
| 20260831190020 | 82 | 52 | 0.0 | 0.0 | 0.00 | 0.00 | 0.00 | 89 | 1014.6 |
| 20260831184518 | 82 | 9 | 0.0 | 0.0 | 0.00 | 0.00 | 0.00 | 88 | 1014.6 |
| 20260831183017 | 83 | 33 | 0.0 | 0.0 | 0.00 | 0.00 | 0.00 | 88 | 1014.5 |
| 20260831181517 | 82 | 307 | 0.0 | 0.0 | 0.00 | 0.00 | 0.00 | 88 | 1014.4 |
| 20260831180018 | 83 | 11 | 0.0 | 0.0 | 0.00 | 0.00 | 0.00 | 88 | 1014.2 |
| 20260831174516 | 83 | 49 | 0.0 | 7.0 | 0.00 | 0.00 | 0.00 | 88 | 1014.3 |
| 20260831173016 | 83 | 36 | 5.0 | 8.0 | 0.00 | 0.00 | 0.00 | 88 | 1014.2 |
| 20260831171515 | 83 | 51 | 2.0 | 6.0 | 0.00 | 0.00 | 0.00 | 88 | 1014.1 |
| 20260831170026 | 83 | 25 | 4.0 | 7.0 | 0.00 | 0.00 | 0.00 | 87 | 1014.2 |
| 20260831164514 | 83 | 13 | 3.0 | 8.0 | 0.00 | 0.00 | 0.00 | 88 | 1014.4 |
| 20260831163013 | 83 | 70 | 4.0 | 7.0 | 0.00 | 0.00 | 0.00 | 87 | 1014.4 |
| 20260831161513 | 83 | 20 | 4.0 | 9.0 | 0.00 | 0.00 | 0.00 | 88 | 1014.4 |
| 20260831160027 | 83 | 20 | 5.0 | 9.0 | 0.00 | 0.00 | 0.00 | 88 | 1014.2 |
| 20260831154511 | 83 | 30 | 2.0 | 8.0 | 0.00 | 0.00 | 0.00 | 88 | 1014.1 |
| 20260831153031 | 83 | 26 | 6.0 | 11.0 | 0.00 | 0.00 | 0.00 | 88 | 1014.1 |
| 20260831151511 | 83 | 49 | 9.0 | 13.0 | 0.00 | 0.00 | 0.00 | 87 | 1014.3 |
| 20260831150010 | 84 | 11 | 4.0 | 11.0 | 0.00 | 0.00 | 0.00 | 86 | 1014.5 |
| 20260831144510 | 83 | 44 | 8.0 | 13.0 | 0.00 | 0.00 | 0.00 | 86 | 1014.6 |
| 20260831143009 | 83 | 87 | 8.0 | 13.0 | 0.00 | 0.00 | 0.00 | 86 | 1014.4 |
| 20260831141517 | 84 | 95 | 9.0 | 16.0 | 0.00 | 0.00 | 0.00 | 86 | 1014.2 |
| 20260831140010 | 84 | 45 | 11.0 | 16.0 | 0.00 | 0.00 | 0.00 | 85 | 1014.1 |
| 20260831134508 | 84 | 62 | 10.0 | 17.0 | 0.00 | 0.00 | 0.00 | 85 | 1014.2 |
| 20260831133005 | 84 | 40 | 10.0 | 16.0 | 0.00 | 0.00 | 0.00 | 84 | 1014.3 |
| 20260831131606 | 84 | 38 | 9.0 | 14.0 | 0.00 | 0.00 | 0.00 | 84 | 1014.4 |
| 20260831130004 | 84 | 35 | 9.0 | 16.0 | 0.00 | 0.00 | 0.00 | 83 | 1014.5 |
| 20260831124505 | 84 | 81 | 6.0 | 17.0 | 0.00 | 0.00 | 0.00 | 83 | 1014.6 |
| 20260831123002 | 84 | 54 | 9.0 | 17.0 | 0.00 | 0.00 | 0.00 | 83 | 1014.7 |
| 20260831121507 | 84 | 30 | 8.0 | 13.0 | 0.00 | 0.00 | 0.00 | 82 | 1014.9 |
| 20260831120005 | 84 | 95 | 11.0 | 16.0 | 0.00 | 0.00 | 0.00 | 81 | 1014.9 |
| 20260831114502 | 84 | 118 | 9.0 | 16.0 | 0.00 | 0.00 | 0.00 | 81 | 1014.9 |
| 20260831113101 | 84 | 16 | 12.0 | 18.0 | 0.00 | 0.00 | 0.00 | 80 | 1015.0 |
| 20260831111602 | 84 | 17 | 10.0 | 16.0 | 0.00 | 0.00 | 0.00 | 81 | 1015.2 |
| 20260831110059 | 84 | 53 | 10.0 | 16.0 | 0.00 | 0.00 | 0.00 | 82 | 1015.1 |
| 20260831104557 | 84 | 76 | 11.0 | 17.0 | 0.00 | 0.00 | 0.00 | 81 | 1015.2 |
| 20260831103057 | 84 | 102 | 11.0 | 19.0 | 0.00 | 0.00 | 0.00 | 81 | 1015.1 |
| 20260831101604 | 84 | 10 | 9.0 | 16.0 | 0.00 | 0.00 | 0.00 | 82 | 1015.1 |
| 20260831100054 | 83 | 5 | 10.0 | 20.0 | 0.00 | 0.00 | 0.00 | 85 | 1015.0 |
| 20260831094605 | 83 | 357 | 11.0 | 15.0 | 0.00 | 0.00 | 0.00 | 83 | 1015.1 |
| 20260831093053 | 83 | 32 | 11.0 | 17.0 | 0.00 | 0.00 | 0.00 | 82 | 1015.1 |
| 20260831091553 | 83 | 66 | 13.0 | 19.0 | 0.00 | 0.00 | 0.00 | 83 | 1015.1 |
| 20260831090051 | 83 | 39 | 10.0 | 20.0 | 0.00 | 0.00 | 0.00 | 81 | 1015.0 |
| 20260831084554 | 83 | 69 | 13.0 | 20.0 | 0.00 | 0.00 | 0.00 | 81 | 1015.0 |
| 20260831083054 | 83 | 17 | 8.0 | 16.0 | 0.00 | 0.00 | 0.00 | 79 | 1015.0 |
| 20260831081556 | 83 | 54 | 11.0 | 17.0 | 0.00 | 0.00 | 0.00 | 79 | 1014.8 |
| 20260831080046 | 83 | 9 | 11.0 | 18.0 | 0.00 | 0.00 | 0.00 | 79 | 1014.9 |
| 20260831074546 | 83 | 25 | 11.0 | 15.0 | 0.00 | 0.00 | 0.00 | 79 | 1014.8 |
| 20260831073044 | 83 | 2 | 8.0 | 16.0 | 0.00 | 0.00 | 0.00 | 79 | 1014.7 |
| 20260831071543 | 83 | 9 | 9.0 | 13.0 | 0.00 | 0.00 | 0.00 | 80 | 1014.6 |
| 20260831070106 | 82 | 20 | 8.0 | 15.0 | 0.00 | 0.00 | 0.00 | 81 | 1014.6 |
| 20260831064541 | 82 | 18 | 8.0 | 14.0 | 0.00 | 0.00 | 0.00 | 81 | 1014.6 |
| 20260831063040 | 82 | 331 | 5.0 | 10.0 | 0.00 | 0.00 | 0.00 | 81 | 1014.5 |
| 20260831061540 | 82 | 352 | 5.0 | 13.0 | 0.00 | 0.00 | 0.00 | 81 | 1014.5 |
| 20260831060048 | 81 | 335 | 7.0 | 10.0 | 0.00 | 0.00 | 0.00 | 81 | 1014.6 |
| 20260831054538 | 81 | 350 | 3.0 | 8.0 | 0.00 | 0.00 | 0.00 | 82 | 1014.5 |
| 20260831053037 | 80 | 337 | 5.0 | 8.0 | 0.00 | 0.00 | 0.00 | 82 | 1014.4 |
| 20260831051549 | 80 | 352 | 6.0 | 11.0 | 0.00 | 0.00 | 0.00 | 83 | 1014.4 |
| 20260831050037 | 80 | 347 | 5.0 | 9.0 | 0.00 | 0.00 | 0.00 | 83 | 1014.3 |
| 20260831044537 | 80 | 347 | 4.0 | 11.0 | 0.00 | 0.00 | 0.00 | 83 | 1014.3 |
| 20260831043031 | 80 | 338 | 4.0 | 9.0 | 0.00 | 0.00 | 0.00 | 83 | 1014.1 |
| 20260831041534 | 80 | 351 | 5.0 | 11.0 | 0.00 | 0.00 | 0.00 | 83 | 1014.1 |
| 20260831040041 | 80 | 359 | 5.0 | 11.0 | 0.00 | 0.00 | 0.00 | 84 | 1014.1 |
| 20260831034528 | 80 | 350 | 6.0 | 11.0 | 0.00 | 0.00 | 0.00 | 84 | 1014.1 |
| 20260831033026 | 80 | 351 | 7.0 | 12.0 | 0.00 | 0.00 | 0.00 | 84 | 1014.0 |
| 20260831031526 | 80 | 345 | 7.0 | 12.0 | 0.00 | 0.00 | 0.00 | 84 | 1014.1 |
| 20260831030023 | 81 | 346 | 5.0 | 14.0 | 0.00 | 0.00 | 0.00 | 84 | 1014.1 |
| 20260831024522 | 81 | 354 | 5.0 | 11.0 | 0.00 | 0.00 | 0.00 | 84 | 1014.1 |
| 20260831023033 | 81 | 345 | 4.0 | 13.0 | 0.00 | 0.00 | 0.00 | 84 | 1014.0 |
| 20260831021540 | 81 | 19 | 3.0 | 12.0 | 0.00 | 0.00 | 0.00 | 84 | 1014.0 |
| 20260831020019 | 81 | 343 | 6.0 | 11.0 | 0.00 | 0.00 | 0.00 | 85 | 1014.1 |
| 20260831014518 | 81 | 349 | 5.0 | 13.0 | 0.00 | 0.00 | 0.00 | 85 | 1014.0 |
| 20260831013014 | 82 | 28 | 7.0 | 23.0 | 0.00 | 0.00 | 0.00 | 87 | 1013.9 |
| 20260831011512 | 83 | 32 | 11.0 | 22.0 | 0.00 | 0.00 | 0.00 | 88 | 1013.9 |
| 20260831010031 | 83 | 358 | 12.0 | 23.0 | 0.00 | 0.00 | 0.00 | 87 | 1013.9 |
| 20260831004511 | 83 | 54 | 16.0 | 24.0 | 0.00 | 0.00 | 0.00 | 87 | 1013.8 |
| 20260831003010 | 83 | 25 | 10.0 | 19.0 | 0.00 | 0.00 | 0.00 | 85 | 1013.8 |
| 20260831001523 | 82 | 358 | 8.0 | 14.0 | 0.00 | 0.00 | 0.00 | 84 | 1013.9 |
| 20260831000009 | 82 | 342 | 7.0 | 14.0 | 0.00 | 0.00 | 0.00 | 84 | 1013.7 |
| 20260830234507 | 82 | 358 | 5.0 | 16.0 | 0.00 | 0.00 | 0.00 | 83 | 1013.6 |
| 20260830233008 | 82 | 18 | 5.0 | 20.0 | 0.00 | 0.00 | 0.00 | 83 | 1013.6 |
| 20260830231508 | 82 | 352 | 7.0 | 16.0 | 0.00 | 0.00 | 0.00 | 83 | 1013.7 |
| 20260830230006 | 83 | 329 | 9.0 | 14.0 | 0.00 | 0.00 | 0.00 | 84 | 1013.6 |
| 20260830224503 | 83 | 357 | 8.0 | 18.0 | 0.00 | 0.00 | 0.00 | 86 | 1013.5 |
| 20260830223100 | 84 | 357 | 8.0 | 17.0 | 0.00 | 0.00 | 0.00 | 88 | 1013.3 |
| 20260830221556 | 84 | 15 | 7.0 | 19.0 | 0.00 | 0.00 | 0.00 | 87 | 1013.3 |
| 20260830220110 | 84 | 351 | 3.0 | 8.0 | 0.00 | 0.00 | 0.00 | 86 | 1013.3 |
| 20260830214601 | 84 | 352 | 4.0 | 10.0 | 0.00 | 0.00 | 0.00 | 86 | 1013.3 |
| 20260830213051 | 84 | 347 | 7.0 | 11.0 | 0.00 | 0.00 | 0.00 | 86 | 1013.2 |
| 20260830211551 | 84 | 357 | 6.0 | 12.0 | 0.00 | 0.00 | 0.00 | 85 | 1013.1 |
| 20260830210051 | 84 | 336 | 6.0 | 13.0 | 0.00 | 0.00 | 0.00 | 84 | 1013.1 |
| 20260830204549 | 85 | 357 | 7.0 | 14.0 | 0.00 | 0.00 | 0.00 | 82 | 1013.1 |
| 20260830203056 | 85 | 346 | 3.0 | 9.0 | 0.00 | 0.00 | 0.00 | 79 | 1013.0 |
| 20260830201550 | 85 | 334 | 4.0 | 14.0 | 0.00 | 0.00 | 0.00 | 78 | 1012.9 |
| 20260830200046 | 86 | 332 | 7.0 | 14.0 | 0.00 | 0.00 | 0.00 | 76 | 1012.8 |
| 20260830194545 | 86 | 331 | 3.0 | 13.0 | 0.00 | 0.00 | 0.00 | 75 | 1012.8 |
| 20260830193044 | 86 | 346 | 2.0 | 6.0 | 0.00 | 0.00 | 0.00 | 73 | 1012.6 |